Location: Theodore Roosevelt National Park
(46.9990°N, 103.4631°W)
Time: 09:45:21
(UTC-06:00)

Iridium 37 - Visible Passes

Search period start: 26 May 2015 00:00
Search period end: 05 June 2015 00:00
Orbit: 776 x 779 km, 86.4° (Epoch: 26 May)

Date Brightness Start Highest point End Pass type
(mag) Time Alt. Az. Time Alt. Az. Time Alt. Az.
26 May 7.9 01:33:32 10° ESE 01:36:14 15° ENE 01:39:10 10° NE visible
26 May 5.5 03:12:38 19° S 03:16:22 78° W 03:21:37 10° N visible
27 May 5.9 02:39:19 20° SSE 02:42:51 61° E 02:48:01 10° N visible
27 May 7.1 04:20:20 10° WSW 04:24:07 19° WNW 04:27:46 10° NNW visible
28 May 6.8 02:06:01 16° SE 02:09:27 35° E 02:14:11 10° NNE visible
28 May 6.5 03:46:29 15° SW 03:50:14 32° WNW 03:54:53 10° NNW visible
29 May 7.5 01:32:41 11° ESE 01:36:09 21° E 01:40:00 10° NNE visible
29 May 5.8 03:13:10 21° SSW 03:16:31 56° W 03:21:39 10° N visible
30 May 8.0 01:01:18 10° E 01:02:57 12° ENE 01:04:53 10° NE visible
30 May 5.5 02:39:50 25° S 02:42:55 85° E 02:48:11 10° N visible
30 May 7.5 04:21:41 10° W 04:24:31 14° WNW 04:27:06 10° NW visible
31 May 6.2 02:06:29 23° SSE 02:09:27 48° E 02:14:29 10° NNE visible
31 May 6.9 03:46:57 13° WSW 03:50:31 24° WNW 03:54:39 10° NNW visible
01 Jun 7.0 01:33:07 17° SE 01:36:06 28° E 01:40:32 10° NNE visible
01 Jun 6.2 03:13:36 20° SW 03:16:42 40° W 03:21:36 10° N visible
02 Jun 7.7 00:59:46 10° ESE 01:02:50 17° ENE 01:06:08 10° NE visible
02 Jun 5.5 02:40:14 28° SSW 02:43:02 70° W 02:48:16 10° N visible
03 Jun 5.7 02:06:52 29° SSE 02:09:30 68° E 02:14:42 10° N visible
03 Jun 7.3 03:47:22 10° WSW 03:50:52 17° WNW 03:54:12 10° NNW visible
04 Jun 6.5 01:33:29 23° SE 01:36:04 39° E 01:40:55 10° NNE visible
04 Jun 6.7 03:13:57 18° SW 03:16:57 29° WNW 03:21:27 10° NNW visible
